QPF
0.00 0.00 0.00 0.00 0.00 0.00 0.00 0.00 0.00 0.00 0.00 0.00 0.00 0.00 0.00 0.00 0.00 0.00 0.00 0.00 0.00 0.00 0.00 0.00 0.00 0.00 0.00 0.00 0.00 0.00 0.00 0.00 0.00 0.00 0.00 0.00 0.00 0.00 0.00 0.00 0.00 0.00 0.00
0.00 0.00 0.00 0.00 0.00 0.00 0.00 0.00 0.00 0.00 0.00 0.00 0.00 0.00 0.00 0.00 0.00 0.00 0.00 0.00 0.00 0.00 0.00 0.00 0.00 0.00 0.00 0.00 0.00 0.00 0.00 0.00 0.00 0.00 0.00 0.00 0.00 0.00 0.00 0.00 0.00 0.00 0.00
0.00 0.00 0.00 0.00 0.00 0.00 0.00 0.00 0.00 0.00 0.00 0.00 0.00 0.00 0.00 0.00 0.00 0.00 0.00 0.00 0.00 0.00 0.00 0.00 0.00 0.00 0.00 0.00 0.00 0.00 0.00 0.00 0.00 0.00 0.00 0.00 0.00 0.00 0.00 0.00 0.00 0.00 0.00
0.00 0.00 0.00 0.00 0.00 0.00 0.00 0.00 0.00 0.00 0.00 0.00 0.00 0.00 0.00 0.00 0.00 0.00 0.00 0.00 0.00 0.00 0.00 0.00 0.00 0.00 0.00 0.00 0.00 0.00 0.00 0.00 0.00 0.00 0.00 0.00 0.00 0.00 0.00 0.00 0.00 0.00 0.00
0.00 0.00 0.00 0.00 0.00 0.00 0.00 0.00 0.00 0.00 0.00 0.00 0.00 0.00 0.00 0.00 0.00 0.00 0.00 0.00 0.00 0.00 0.00 0.00 0.00 0.00 0.00 0.00 0.00 0.00 0.00 0.00 0.00 0.00 0.00 0.00 0.00 0.00 0.00 0.00 0.00 0.00 0.00
0.00 0.00 0.00 0.00 0.00 0.00 0.00 0.00 0.00 0.00 0.00 0.00 0.00 0.00 0.00 0.00 0.00 0.00 0.00 0.00 0.00 0.00 0.00 0.00 0.00 0.00 0.00 0.00 0.00 0.00 0.00 0.00 0.00 0.00 0.00 0.00 0.00 0.00 0.00 0.00 0.00 0.00 0.00
0.00 0.00 0.00 0.00 0.00 0.00 0.00 0.00 0.00 0.00 0.00 0.00 0.00 0.00 0.00 0.00 0.00 0.00 0.00 0.00 0.00 0.00 0.00 0.00 0.00 0.00 0.00 0.00 0.00 0.00 0.00 0.00 0.00 0.00 0.00 0.00 0.00 0.00 0.00 0.00 0.00 0.00 0.00
0.00 0.00 0.00 0.00 0.00 0.00 0.00 0.00 0.00 0.00 0.00 0.00 0.00 0.00 0.00 0.00 0.00 0.00 0.00 0.00 0.00 0.00 0.00 0.00 0.00 0.00 0.00 0.00 0.00 0.00 0.00 0.00 0.00 0.00 0.00 0.00 0.00 0.00 0.00 0.00 0.00 0.00 0.00
0.00 0.00 0.00 0.00 0.00 0.00 0.00 0.00 0.00 0.00 0.00 0.00 0.00 0.00 0.00 0.00 0.00 0.00 0.00 0.00 0.00 0.00 0.00 0.00 0.00 0.00 0.00 0.00 0.00 0.00 0.00 0.00 0.00 0.00 0.00 0.00 0.00 0.00 0.00 0.00 0.00 0.00 0.00
0.00 0.00 0.00 0.00 0.00 0.00 0.00 0.00 0.00 0.00 0.00 0.00 0.00 0.00 0.00 0.00 0.00 0.00 0.00 0.00 0.00 0.00 0.00 0.00 0.00 0.00 0.00 0.00 0.00 0.00 0.00 0.00 0.00 0.00 0.00 0.00 0.00 0.00 0.00 0.00 0.00 0.00 0.00
0.00 0.00 0.00 0.00 0.00 0.00 0.00 0.00 0.00 0.00 0.00 0.00 0.00 0.00 0.00 0.00 0.00 0.00 0.00 0.00 0.00 0.00 0.00 0.00 0.00 0.00 0.00 0.00 0.00 0.00 0.00 0.00 0.00 0.00 0.00 0.00 0.00 0.00 0.00 0.00 0.00 0.00 0.00
0.00 0.00 0.00 0.00 0.00 0.00 0.00 0.00 0.00 0.00 0.00 0.00 0.00 0.00 0.00 0.00 0.00 0.00 0.00 0.00 0.00 0.00 0.00 0.00 0.00 0.00 0.00 0.00 0.00 0.00 0.00 0.00 0.00 0.00 0.00 0.00 0.00 0.00 0.00 0.00 0.00 0.00 0.00
0.00 0.00 0.00 0.00 0.00 0.00 0.00 0.00 0.00 0.00 0.00 0.00 0.00 0.00 0.00 0.00 0.00 0.00 0.00 0.00 0.00 0.00 0.00 0.00 0.00 0.00 0.00 0.00 0.00 0.00 0.00 0.00 0.00 0.00 0.00 0.00 0.00 0.00 0.00 0.00 0.00 0.00 0.00
0.01 0.00 0.00 0.00 0.00 0.00 0.00 0.00 0.00 0.00 0.00 0.00 0.00 0.00 0.00 0.00 0.00 0.00 0.00 0.00 0.00 0.00 0.00 0.00 0.00 0.00 0.00 0.00 0.00 0.00 0.00 0.00 0.00 0.00 0.00 0.00 0.00 0.00 0.00 0.00 0.00 0.00 0.00
0.01 0.00 0.00 0.00 0.00 0.00 0.00 0.00 0.00 0.00 0.00 0.00 0.00 0.00 0.00 0.00 0.00 0.00 0.00 0.00 0.00 0.00 0.00 0.00 0.00 0.00 0.00 0.00 0.00 0.00 0.00 0.00 0.00 0.00 0.00 0.00 0.00 0.00 0.00 0.00 0.00 0.00 0.00
0.01 0.00 0.00 0.00 0.00 0.00 0.00 0.00 0.00 0.00 0.00 0.00 0.00 0.00 0.00 0.00 0.00 0.00 0.00 0.00 0.00 0.00 0.00 0.00 0.00 0.00 0.00 0.00 0.00 0.00 0.00 0.00 0.00 0.00 0.00 0.00 0.00 0.00 0.00 0.00 0.00 0.00 0.00
0.01 0.01 0.00 0.00 0.00 0.00 0.00 0.00 0.00 0.00 0.00 0.00 0.00 0.00 0.00 0.00 0.00 0.00 0.00 0.00 0.00 0.00 0.00 0.00 0.00 0.00 0.00 0.00 0.00 0.00 0.00 0.00 0.00 0.00 0.00 0.00 0.00 0.00 0.00 0.00 0.00 0.00 0.00
0.01 0.01 0.00 0.00 0.00 0.00 0.00 0.00 0.00 0.00 0.00 0.00 0.00 0.00 0.00 0.00 0.00 0.00 0.00 0.00 0.00 0.00 0.00 0.00 0.00 0.00 0.00 0.00 0.00 0.00 0.00 0.00 0.00 0.00 0.00 0.00 0.00 0.00 0.00 0.00 0.00 0.00 0.00
0.01 0.00 0.00 0.00 0.00 0.00 0.00 0.00 0.00 0.00 0.00 0.00 0.00 0.00 0.00 0.00 0.00 0.00 0.00 0.00 0.00 0.00 0.00 0.00 0.00 0.00 0.00 0.00 0.00 0.00 0.00 0.00 0.00 0.00 0.00 0.00 0.00 0.00 0.00 0.00 0.00 0.00 0.00
0.01 0.00 0.00 0.00 0.00 0.00 0.00 0.00 0.00 0.00 0.00 0.00 0.00 0.00 0.00 0.00 0.00 0.00 0.00 0.00 0.00 0.00 0.00 0.00 0.00 0.00 0.00 0.00 0.00 0.00 0.00 0.00 0.00 0.00 0.00 0.00 0.00 0.00 0.00 0.00 0.00 0.00 0.00
0.00 0.00 0.00 0.00 0.00 0.00 0.00 0.00 0.00 0.00 0.00 0.00 0.00 0.00 0.00 0.00 0.00 0.00 0.00 0.00 0.00 0.00 0.00 0.00 0.00 0.00 0.00 0.00 0.00 0.00 0.00 0.00 0.00 0.00 0.00 0.00 0.00 0.00 0.00 0.00 0.00 0.00 0.00
0.00 0.00 0.00 0.00 0.00 0.00 0.00 0.00 0.00 0.00 0.00 0.00 0.00 0.00 0.00 0.00 0.00 0.00 0.00 0.00 0.00 0.00 0.00 0.00 0.01 0.00 0.00 0.00 0.00 0.00 0.00 0.00 0.01 0.00 0.00 0.00 0.00 0.00 0.00 0.00 0.00 0.00 0.00
0.00 0.00 0.00 0.00 0.00 0.00 0.00 0.00 0.00 0.00 0.00 0.00 0.00 0.00 0.00 0.00 0.00 0.00 0.00 0.00 0.00 0.00 0.00 0.00 0.00 0.00 0.00 0.00 0.00 0.01 0.02 0.02 0.00 0.00 0.00 0.00 0.00 0.00 0.00 0.00 0.00 0.00 0.00
0.00 0.00 0.00 0.00 0.00 0.00 0.00 0.00 0.00 0.00 0.00 0.00 0.00 0.00 0.00 0.00 0.00 0.00 0.00 0.00 0.00 0.00 0.00 0.00 0.00 0.00 0.00 0.00 0.01 0.02 0.00 0.00 0.00 0.00 0.00 0.00 0.00 0.00 0.00 0.00 0.00 0.00 0.00
0.00 0.00 0.00 0.00 0.00 0.00 0.00 0.00 0.00 0.00 0.00 0.00 0.00 0.00 0.00 0.00 0.00 0.00 0.00 0.00 0.00 0.00 0.00 0.00 0.00 0.00 0.00 0.00 0.00 0.00 0.00 0.00 0.00 0.00 0.00 0.00 0.00 0.00 0.00 0.00 0.00 0.00 0.00
0.00 0.00 0.00 0.00 0.00 0.00 0.00 0.00 0.00 0.00 0.00 0.00 0.00 0.00 0.00 0.00 0.00 0.00 0.00 0.00 0.00 0.00 0.00 0.00 0.00 0.00 0.00 0.00 0.00 0.00 0.00 0.01 0.01 0.01 0.00 0.01 0.01 0.00 0.02 0.00 0.00 0.00 0.00
MSLP
1016.58 1016.90 1017.16 1017.34 1017.78 1018.00 1018.18 1018.44 1018.60 1018.60 1018.52 1018.40 1018.41 1018.50 1018.42 1018.61 1018.90 1019.17 1019.17 1018.81 1019.05 1019.06 1019.01 1019.10 1019.27 1019.14 1019.18 1019.07 1019.01 1018.81 1018.80 1018.74 1018.57 1018.46 1018.37 1018.13 1018.01 1017.85 1017.64 1017.38 1017.20 1017.12 1016.99
1016.12 1016.57 1017.04 1017.47 1017.61 1017.75 1018.17 1018.52 1018.76 1018.88 1018.86 1018.72 1018.79 1018.71 1018.68 1018.57 1019.03 1019.28 1019.26 1019.18 1019.46 1019.35 1019.36 1019.23 1019.55 1019.45 1019.39 1019.25 1019.16 1019.07 1019.01 1018.95 1018.87 1018.77 1018.60 1018.38 1018.17 1018.04 1017.82 1017.57 1017.25 1017.11 1017.05
1015.86 1016.38 1016.92 1017.48 1017.75 1018.01 1018.28 1018.54 1018.83 1018.95 1019.09 1019.07 1019.06 1018.80 1018.71 1018.78 1018.94 1019.32 1019.51 1019.58 1019.79 1019.70 1019.47 1019.36 1019.65 1019.52 1019.55 1019.45 1019.37 1019.26 1019.20 1019.18 1019.12 1019.00 1018.73 1018.53 1018.26 1018.08 1017.86 1017.59 1017.34 1017.03 1017.00
1015.47 1016.14 1016.81 1017.39 1017.78 1018.24 1018.57 1018.83 1019.03 1019.29 1019.46 1019.39 1019.21 1019.09 1018.96 1018.81 1019.06 1019.38 1019.45 1019.70 1019.93 1019.86 1019.74 1019.84 1019.88 1019.78 1019.66 1019.62 1019.55 1019.41 1019.36 1019.34 1019.24 1019.08 1018.93 1018.71 1018.42 1018.14 1017.82 1017.54 1017.29 1016.94 1016.68
1015.26 1015.64 1016.53 1017.34 1017.77 1018.29 1018.71 1018.95 1019.32 1019.45 1019.74 1019.55 1019.29 1019.14 1019.10 1019.04 1019.11 1019.17 1019.59 1019.88 1019.85 1019.94 1020.18 1020.24 1020.27 1020.17 1020.05 1019.95 1019.79 1019.55 1019.47 1019.41 1019.33 1019.29 1019.09 1018.80 1018.48 1018.17 1017.81 1017.41 1017.13 1016.86 1016.47
1015.27 1015.69 1016.61 1017.22 1017.69 1018.25 1018.69 1019.04 1019.33 1019.61 1019.75 1019.77 1019.53 1019.35 1019.34 1019.11 1019.22 1019.44 1019.68 1019.75 1019.94 1020.11 1020.28 1020.38 1020.49 1020.53 1020.36 1020.20 1020.08 1019.86 1019.63 1019.51 1019.43 1019.35 1019.23 1018.99 1018.64 1018.29 1017.85 1017.45 1017.09 1016.69 1016.35
1015.02 1015.66 1016.50 1017.13 1017.73 1018.01 1018.45 1018.94 1019.38 1019.84 1020.04 1019.87 1019.93 1019.96 1019.81 1019.68 1019.56 1019.63 1019.83 1019.95 1020.03 1020.17 1020.25 1020.43 1020.51 1020.66 1020.65 1020.33 1020.17 1019.88 1019.74 1019.68 1019.50 1019.42 1019.25 1018.89 1018.54 1018.21 1017.81 1017.38 1016.94 1016.51 1016.16
1015.01 1015.80 1016.35 1017.08 1017.65 1017.99 1018.45 1018.89 1019.30 1020.02 1020.31 1020.22 1020.48 1020.72 1020.68 1020.52 1020.11 1020.08 1020.11 1020.27 1020.62 1020.58 1020.56 1020.56 1020.55 1020.57 1020.50 1020.37 1020.20 1019.99 1019.90 1019.72 1019.50 1019.40 1019.13 1018.78 1018.36 1017.96 1017.53 1017.11 1016.67 1016.29 1015.92
1014.80 1015.49 1016.17 1016.91 1017.72 1017.85 1018.42 1018.94 1019.25 1019.68 1020.33 1020.63 1020.49 1020.63 1021.10 1021.42 1021.38 1020.62 1020.60 1020.58 1020.80 1021.04 1021.05 1020.86 1020.63 1020.56 1020.40 1020.27 1020.09 1020.06 1019.85 1019.74 1019.51 1019.32 1018.97 1018.59 1018.16 1017.67 1017.15 1016.67 1016.26 1015.85 1015.49
1014.92 1015.43 1016.11 1016.85 1017.60 1018.01 1018.36 1018.87 1019.16 1019.52 1019.84 1020.52 1020.68 1020.65 1020.89 1021.25 1021.70 1021.75 1021.16 1021.02 1021.04 1021.10 1021.05 1020.91 1020.79 1020.55 1020.28 1020.11 1019.97 1019.85 1019.65 1019.54 1019.43 1019.11 1018.72 1018.31 1017.83 1017.26 1016.71 1016.23 1015.75 1015.35 1015.21
1014.90 1015.52 1016.09 1016.94 1017.71 1018.18 1018.42 1018.72 1019.15 1019.49 1019.81 1020.43 1020.75 1021.10 1021.24 1021.39 1021.67 1022.15 1022.26 1021.70 1021.30 1021.08 1021.10 1020.97 1020.70 1020.65 1020.36 1020.15 1020.10 1019.92 1019.53 1019.43 1019.13 1018.76 1018.34 1017.94 1017.35 1016.77 1016.17 1015.68 1015.40 1015.30 1015.11
1014.99 1015.57 1016.19 1016.86 1017.52 1017.96 1018.60 1018.71 1019.16 1019.51 1019.97 1020.35 1020.77 1021.09 1021.37 1021.73 1022.05 1022.41 1022.70 1022.34 1022.08 1021.39 1021.11 1020.81 1020.64 1020.70 1020.54 1020.50 1020.24 1020.04 1019.80 1019.46 1019.08 1018.67 1018.21 1017.74 1017.09 1016.43 1015.92 1015.63 1015.52 1015.08 1014.80
1014.77 1015.32 1016.10 1016.49 1017.52 1018.10 1018.69 1018.82 1019.19 1019.54 1019.94 1020.37 1020.72 1021.15 1021.33 1021.60 1021.89 1022.20 1022.61 1022.59 1022.49 1021.78 1021.27 1020.89 1020.65 1020.54 1020.47 1020.54 1020.34 1019.86 1019.58 1019.33 1018.90 1018.40 1017.90 1017.23 1016.70 1016.25 1015.92 1015.58 1015.21 1014.77 1014.30
1014.36 1015.01 1015.92 1016.71 1017.48 1017.87 1018.71 1019.02 1019.35 1019.68 1019.96 1020.29 1020.70 1021.00 1021.32 1021.55 1021.77 1022.02 1022.33 1022.64 1022.52 1022.21 1021.64 1021.26 1020.68 1020.59 1020.47 1020.29 1019.90 1019.51 1019.42 1019.07 1018.64 1018.06 1017.51 1016.90 1016.54 1016.22 1015.89 1015.34 1014.69 1014.22 1013.71
1014.30 1015.06 1015.89 1016.75 1017.40 1017.98 1018.83 1019.03 1019.36 1019.75 1020.04 1020.32 1020.61 1020.93 1021.31 1021.58 1021.73 1021.89 1022.04 1022.26 1022.59 1022.64 1021.79 1021.17 1021.09 1020.44 1020.36 1020.08 1019.75 1019.35 1019.10 1018.77 1018.13 1017.57 1017.03 1016.55 1016.08 1015.71 1015.10 1014.52 1014.00 1013.55 1013.22
1014.12 1014.99 1015.76 1016.68 1017.31 1018.24 1018.90 1019.16 1019.50 1019.82 1020.07 1020.29 1020.57 1020.92 1021.27 1021.47 1021.56 1021.74 1021.81 1021.95 1022.21 1022.37 1022.12 1021.13 1020.91 1020.52 1020.18 1019.77 1019.40 1019.02 1018.68 1018.13 1017.75 1017.16 1016.46 1015.96 1015.38 1014.73 1014.17 1013.69 1013.28 1012.86 1012.46
1014.16 1015.09 1015.84 1016.61 1017.54 1018.28 1019.02 1019.22 1019.59 1019.90 1020.17 1020.28 1020.60 1020.90 1021.17 1021.26 1021.44 1021.61 1021.68 1021.75 1021.92 1022.00 1021.80 1021.03 1020.72 1020.37 1020.08 1019.64 1019.17 1018.72 1018.21 1017.78 1017.13 1016.49 1015.89 1015.17 1014.53 1014.08 1013.56 1013.05 1012.60 1012.03 1011.61
1014.41 1015.30 1015.96 1016.81 1017.73 1018.29 1018.91 1019.13 1019.49 1019.87 1020.12 1020.34 1020.60 1020.85 1021.01 1021.07 1021.30 1021.38 1021.48 1021.64 1021.74 1021.62 1021.53 1020.84 1020.51 1020.11 1019.72 1019.20 1018.77 1018.39 1017.77 1017.11 1016.63 1016.02 1015.34 1014.62 1014.01 1013.59 1013.06 1012.47 1011.82 1011.26 1010.63
1014.54 1015.58 1016.11 1017.08 1017.77 1018.41 1018.84 1019.25 1019.46 1019.79 1020.03 1020.31 1020.42 1020.62 1020.83 1020.94 1021.06 1021.08 1021.19 1021.29 1021.21 1020.91 1020.85 1020.60 1019.92 1019.56 1019.16 1018.78 1018.29 1017.73 1017.15 1016.51 1016.11 1015.44 1014.81 1014.05 1013.56 1012.93 1012.28 1011.72 1011.11 1010.50 1010.04
1014.80 1015.63 1016.35 1017.07 1017.82 1018.48 1018.97 1019.46 1019.76 1020.00 1020.13 1020.34 1020.42 1020.38 1020.61 1020.69 1020.77 1020.72 1020.72 1020.68 1020.51 1020.56 1020.42 1020.13 1019.69 1019.25 1018.96 1018.37 1017.90 1017.21 1016.29 1016.03 1015.30 1014.76 1014.19 1013.43 1012.92 1012.21 1011.74 1011.14 1010.59 1009.96 1009.45
1015.08 1015.66 1016.64 1017.14 1018.06 1018.64 1019.13 1019.53 1019.94 1020.11 1020.30 1020.45 1020.42 1020.33 1020.48 1020.45 1020.28 1020.05 1019.95 1020.13 1020.16 1019.96 1019.80 1019.74 1019.52 1018.98 1018.42 1017.68 1017.36 1016.80 1016.12 1015.31 1014.66 1014.11 1013.19 1012.86 1012.37 1011.61 1011.08 1010.33 1009.74 1009.12 1008.54
1015.83 1016.37 1017.19 1017.44 1018.25 1018.75 1019.18 1019.72 1019.99 1020.16 1020.35 1020.39 1020.50 1020.33 1020.38 1020.12 1019.85 1019.71 1019.62 1019.44 1019.29 1019.16 1019.22 1019.26 1018.92 1018.41 1017.91 1017.37 1016.88 1016.44 1015.74 1014.99 1013.54 1013.15 1012.77 1011.95 1011.51 1010.67 1010.10 1009.51 1008.81 1007.99 1007.21
1016.90 1017.15 1017.79 1017.97 1018.42 1018.90 1019.41 1019.81 1019.96 1020.12 1020.22 1020.40 1020.42 1020.35 1020.12 1019.77 1019.54 1019.36 1019.17 1018.92 1018.76 1018.76 1018.66 1018.41 1018.20 1017.93 1017.29 1016.76 1016.27 1015.72 1015.09 1014.48 1013.67 1012.77 1012.34 1010.97 1010.55 1009.71 1009.13 1008.43 1007.81 1006.92 1006.16
1017.78 1017.65 1018.25 1018.46 1018.76 1019.15 1019.56 1019.70 1019.77 1019.98 1020.22 1020.37 1020.28 1020.11 1019.97 1019.68 1019.34 1018.85 1018.60 1018.59 1018.45 1018.31 1018.12 1017.83 1017.36 1016.92 1016.43 1015.86 1015.47 1014.95 1014.29 1013.76 1013.00 1012.27 1011.79 1010.39 1009.80 1008.78 1008.03 1007.61 1006.77 1005.87 1005.09
1018.43 1018.22 1018.88 1018.94 1019.06 1019.36 1019.45 1019.48 1019.65 1019.99 1020.30 1020.26 1020.12 1020.01 1019.71 1019.27 1018.90 1018.50 1018.16 1018.18 1017.99 1017.79 1017.40 1016.85 1016.32 1015.98 1015.55 1015.14 1014.67 1014.37 1014.00 1013.63 1012.33 1011.56 1010.82 1010.28 1008.99 1008.12 1007.39 1006.24 1005.42 1004.68 1004.11
1018.58 1018.90 1019.04 1018.93 1019.16 1019.32 1019.21 1019.40 1019.69 1019.94 1020.24 1020.34 1020.14 1019.75 1019.37 1018.95 1018.50 1018.04 1017.64 1017.64 1017.53 1017.31 1016.82 1016.37 1016.03 1015.60 1015.17 1014.85 1014.31 1014.17 1013.78 1013.38 1012.44 1010.88 1009.69 1009.67 1008.87 1008.34 1006.13 1004.93 1004.38 1004.08 1003.39
Thickness
5682 5680 5676 5674 5670 5668 5667 5665 5663 5662 5662 5662 5660 5659 5658 5656 5654 5650 5648 5649 5645 5644 5643 5641 5638 5639 5637 5636 5635 5636 5634 5633 5633 5632 5632 5633 5632 5633 5634 5636 5637 5637 5637
5680 5676 5673 5669 5667 5666 5662 5658 5656 5654 5654 5653 5650 5650 5649 5649 5644 5642 5641 5639 5634 5634 5632 5633 5629 5628 5627 5627 5627 5626 5625 5624 5624 5622 5622 5623 5624 5624 5625 5626 5627 5628 5628
5675 5672 5668 5663 5660 5657 5655 5653 5650 5648 5646 5643 5642 5642 5641 5640 5638 5634 5632 5629 5625 5623 5624 5624 5619 5619 5618 5617 5616 5616 5615 5614 5613 5612 5612 5612 5614 5615 5615 5616 5616 5617 5617
5672 5668 5663 5658 5653 5649 5646 5644 5642 5638 5635 5634 5633 5633 5633 5632 5630 5626 5625 5621 5617 5616 5615 5611 5609 5608 5608 5606 5605 5605 5604 5602 5602 5601 5600 5600 5602 5602 5603 5605 5606 5607 5607
5668 5666 5658 5651 5646 5642 5638 5636 5632 5630 5626 5626 5627 5625 5625 5624 5621 5620 5616 5612 5611 5609 5605 5599 5597 5597 5595 5593 5593 5593 5591 5590 5589 5588 5587 5588 5588 5590 5591 5592 5593 5594 5597
5661 5658 5651 5646 5641 5637 5632 5628 5625 5620 5618 5616 5618 5617 5615 5616 5613 5610 5607 5604 5601 5598 5595 5590 5587 5584 5582 5581 5579 5578 5577 5576 5575 5574 5573 5573 5575 5575 5576 5578 5580 5581 5583
5655 5650 5644 5639 5634 5631 5626 5622 5616 5611 5607 5606 5605 5603 5603 5602 5602 5600 5597 5594 5590 5587 5582 5579 5576 5573 5570 5569 5568 5567 5564 5562 5561 5558 5558 5560 5561 5562 5562 5563 5564 5565 5567
5647 5641 5636 5632 5627 5623 5619 5614 5609 5601 5597 5594 5591 5587 5586 5587 5588 5587 5584 5581 5575 5572 5569 5565 5563 5560 5559 5558 5556 5553 5550 5548 5546 5544 5544 5545 5546 5546 5547 5547 5548 5549 5550
5642 5635 5630 5624 5618 5617 5611 5606 5601 5596 5588 5583 5582 5580 5575 5573 5565 5572 5569 5567 5562 5557 5553 5551 5549 5547 5546 5544 5542 5539 5535 5533 5531 5528 5528 5528 5528 5529 5530 5531 5532 5533 5534
5633 5628 5623 5616 5611 5608 5603 5598 5594 5589 5584 5577 5573 5571 5566 5561 5554 5552 5554 5551 5547 5544 5541 5538 5536 5534 5533 5530 5527 5523 5520 5517 5513 5512 5511 5510 5510 5510 5512 5513 5514 5514 5513
5623 5618 5614 5608 5602 5598 5595 5591 5586 5581 5576 5569 5563 5558 5554 5548 5543 5537 5532 5532 5533 5530 5527 5524 5523 5520 5518 5515 5511 5506 5502 5497 5495 5495 5494 5492 5492 5493 5494 5494 5492 5490 5489
5614 5609 5605 5600 5594 5590 5585 5583 5578 5572 5565 5560 5553 5548 5542 5536 5530 5524 5518 5517 5517 5519 5516 5511 5509 5505 5503 5498 5494 5490 5487 5485 5483 5481 5480 5478 5477 5478 5477 5474 5470 5469 5467
5607 5603 5597 5594 5585 5580 5575 5574 5569 5563 5556 5549 5543 5536 5531 5526 5520 5514 5507 5504 5502 5505 5504 5500 5496 5492 5486 5482 5477 5474 5471 5468 5466 5463 5461 5460 5457 5456 5453 5451 5448 5446 5445
5601 5597 5589 5583 5576 5573 5566 5562 5558 5552 5547 5540 5533 5527 5521 5515 5509 5503 5497 5491 5486 5486 5488 5485 5484 5478 5472 5467 5462 5459 5456 5451 5447 5444 5441 5440 5435 5431 5428 5426 5425 5422 5419
5593 5586 5580 5574 5568 5563 5556 5553 5547 5541 5536 5530 5524 5517 5510 5503 5498 5492 5486 5480 5472 5468 5477 5472 5467 5465 5459 5454 5447 5442 5437 5431 5428 5425 5421 5416 5413 5407 5405 5401 5397 5391 5385
5585 5579 5572 5565 5559 5552 5546 5542 5536 5531 5525 5521 5514 5506 5499 5492 5487 5481 5475 5469 5461 5454 5451 5455 5451 5446 5442 5437 5432 5427 5421 5416 5410 5404 5399 5394 5388 5384 5377 5371 5363 5356 5351
5575 5569 5563 5557 5550 5543 5535 5531 5526 5520 5515 5510 5503 5496 5489 5483 5476 5469 5462 5456 5449 5441 5437 5439 5432 5427 5423 5418 5414 5408 5401 5395 5389 5380 5373 5366 5361 5353 5344 5337 5333 5331 5329
5565 5558 5554 5547 5539 5533 5527 5523 5517 5511 5505 5499 5492 5484 5478 5473 5464 5457 5450 5443 5436 5429 5422 5424 5417 5413 5406 5401 5393 5386 5378 5370 5360 5349 5343 5335 5330 5325 5320 5319 5319 5319 5320
5555 5548 5545 5537 5530 5523 5517 5511 5507 5501 5495 5488 5482 5474 5467 5460 5453 5446 5438 5430 5424 5419 5411 5406 5405 5397 5389 5379 5373 5366 5358 5347 5332 5321 5318 5315 5314 5313 5312 5311 5311 5312 5312
5546 5540 5534 5528 5520 5513 5507 5500 5495 5489 5483 5475 5469 5464 5456 5448 5441 5435 5427 5420 5414 5405 5398 5391 5386 5377 5366 5359 5351 5344 5338 5320 5314 5305 5306 5305 5304 5304 5302 5301 5301 5302 5304
5536 5532 5524 5519 5510 5503 5496 5489 5482 5476 5470 5463 5457 5451 5443 5437 5432 5426 5419 5408 5400 5392 5383 5372 5364 5358 5349 5341 5328 5317 5309 5308 5304 5296 5301 5295 5293 5294 5292 5293 5294 5295 5299
5523 5520 5512 5508 5498 5492 5486 5478 5470 5465 5458 5451 5443 5438 5430 5425 5420 5413 5406 5398 5388 5374 5361 5353 5348 5339 5328 5315 5305 5298 5294 5293 5301 5285 5286 5289 5281 5288 5285 5285 5286 5290 5295
5506 5503 5498 5494 5488 5481 5472 5465 5460 5453 5446 5438 5431 5425 5419 5415 5409 5401 5394 5386 5375 5362 5351 5340 5330 5316 5306 5295 5291 5287 5283 5282 5279 5276 5273 5286 5276 5280 5277 5279 5278 5282 5287
5490 5491 5486 5482 5474 5468 5460 5455 5450 5441 5433 5425 5419 5413 5406 5401 5395 5390 5382 5371 5360 5346 5334 5321 5309 5299 5291 5288 5283 5281 5278 5276 5272 5267 5258 5273 5269 5271 5270 5269 5270 5275 5279
5479 5477 5470 5467 5463 5456 5451 5445 5437 5428 5420 5413 5407 5400 5395 5389 5383 5378 5370 5356 5344 5331 5318 5306 5297 5291 5286 5280 5275 5271 5264 5260 5265 5263 5251 5256 5261 5262 5262 5264 5265 5268 5270
5470 5466 5462 5459 5452 5445 5442 5435 5426 5416 5408 5400 5393 5387 5382 5377 5370 5364 5356 5345 5332 5318 5307 5296 5288 5282 5277 5270 5264 5257 5252 5249 5248 5257 5251 5250 5250 5246 5262 5262 5261 5259 5262